Stations météo

réclame
Mon MeteoGroup
Isle Of Portland, Grande-Bretagne (3857): Température de l'air & dewpoint: 19.11.2017 01:00:00 - 25.11.2017 01:00:00 (GMT)Isle Of Portland, Grande-Bretagne (3857): Vitesse du vent & gusts: 19.11.2017 01:00:00 - 25.11.2017 01:00:00 (GMT)Isle Of Portland, Grande-Bretagne (3857): Direction du vent: 19.11.2017 01:00:00 - 25.11.2017 01:00:00 (GMT)Isle Of Portland, Grande-Bretagne (3857): reduced air pressure: 19.11.2017 01:00:00 - 25.11.2017 01:00:00 (GMT)Isle Of Portland, Grande-Bretagne (3857): visibility: 19.11.2017 01:00:00 - 25.11.2017 01:00:00 (GMT)Isle Of Portland, Grande-Bretagne (3857): Quantités de précipitations: 19.11.2017 01:00:00 - 25.11.2017 01:00:00 (GMT)
Date & Time tt [°C] td [°C] ff [km/h] ff [knt] fx [km/h] fx [knt] dd ppp [hPa] vv [km] rr [mm]
25.11.2017 01:00:00 5,6 2,6 37 20 50 27 NNW 1013,7 45 0,0
25.11.2017 00:00:00 6,7 1,2 9 5 - - NW 1013,5 40 0,0
24.11.2017 23:00:00 7,0 1,4 13 7 - - WNW 1013,7 35 0,0
24.11.2017 22:00:00 5,5 0,9 8 4 - - N 1013,4 40 0,0
24.11.2017 21:00:00 5,0 0,9 11 6 - - N 1013,4 50 0,0
24.11.2017 20:00:00 5,5 2,6 15 8 - - N 1013,6 35 0,0
24.11.2017 19:00:00 5,7 2,0 16 9 - - N 1013,5 40 0,0
24.11.2017 18:00:00 6,3 2,9 16 9 - - N 1013,3 40 0,0
24.11.2017 17:00:00 6,6 1,7 15 8 - - N 1012,8 40 0,0
24.11.2017 16:00:00 7,4 2,0 9 5 - - NNE 1012,3 30 0,0
24.11.2017 15:00:00 8,7 2,3 9 5 - - NNE 1012,0 50 0,0
24.11.2017 14:00:00 9,2 3,6 9 5 - - NE 1011,8 50 0,0
24.11.2017 13:00:00 8,5 3,6 9 5 - - NNE 1012,0 45 0,0
24.11.2017 12:00:00 8,9 4,1 8 4 - - NE 1012,1 45 0,0
24.11.2017 11:00:00 8,1 4,5 8 4 - - NE 1012,1 45 0,0
24.11.2017 10:00:00 7,9 4,2 13 7 - - N 1011,2 18 0,0
24.11.2017 09:00:00 7,0 3,7 9 5 - - NE 1010,7 50 0,0
24.11.2017 08:00:00 7,1 3,9 16 9 - - N 1010,3 18 -
24.11.2017 07:00:00 9,0 2,3 15 8 - - WNW 1009,2 50 0,0
24.11.2017 06:00:00 9,2 3,9 31 17 - - WNW 1008,8 22 -
24.11.2017 05:00:00 9,9 5,1 26 14 - - W 1007,9 19 0,0
24.11.2017 04:00:00 10,1 4,9 24 13 - - W 1007,4 21 0,0
24.11.2017 03:00:00 9,2 5,1 11 6 - - W 1007,2 24 0,0
24.11.2017 02:00:00 8,2 4,4 9 5 - - NNW 1006,9 15 0,0
24.11.2017 01:00:00 8,1 4,0 9 5 - - NW 1006,6 18 0,0
24.11.2017 00:00:00 8,0 4,4 8 4 - - NNE 1006,1 15 0,0
23.11.2017 23:00:00 8,2 5,0 2 1 - - W 1006,3 16 1,8
23.11.2017 22:00:00 9,8 5,5 22 12 - - WSW 1006,7 13 0,4
23.11.2017 21:00:00 9,6 4,4 26 14 52 28 SW 1006,9 12 0,0
23.11.2017 20:00:00 11,3 4,1 34 18 46 25 W 1006,3 18 0,0
23.11.2017 19:00:00 11,3 4,4 35 19 48 26 WSW 1006,5 12 0,0
23.11.2017 18:00:00 11,3 3,8 41 22 55 30 WSW 1006,0 14 0,0
23.11.2017 17:00:00 11,2 5,2 42 23 57 31 WSW 1005,3 11 0,0
23.11.2017 16:00:00 11,4 3,6 44 24 61 33 WSW 1004,4 15 0,0
23.11.2017 15:00:00 11,2 4,4 50 27 68 37 WSW 1004,1 19 0,0
23.11.2017 14:00:00 11,8 5,1 46 25 72 39 WSW 1003,3 13 0,0
23.11.2017 13:00:00 11,7 3,5 54 29 72 39 WSW 1002,4 14 0,0
23.11.2017 12:00:00 11,5 4,4 52 28 67 36 WSW 1001,9 15 0,0
23.11.2017 11:00:00 11,1 4,6 52 28 68 37 WSW 1001,6 17 0,0
23.11.2017 10:00:00 10,5 4,5 50 27 68 37 W 1000,2 10 0,0
23.11.2017 09:00:00 10,0 4,3 46 25 63 34 W 998,7 16 0,0
23.11.2017 08:00:00 9,9 5,0 50 27 70 38 W 996,6 23 0,0
23.11.2017 07:00:00 10,3 5,7 57 31 74 40 W 994,5 24 0,0
23.11.2017 06:00:00 11,1 8,6 55 30 76 41 W 991,9 15 0,0
23.11.2017 05:00:00 13,1 11,2 55 30 70 38 WSW 990,1 8 0,0
23.11.2017 04:00:00 13,1 11,9 50 27 67 36 WSW 988,7 9 0,0
23.11.2017 03:00:00 13,0 11,9 46 25 65 35 WSW 987,5 10 0,0
23.11.2017 02:00:00 13,5 12,1 52 28 68 37 SW 986,8 9 0,0
23.11.2017 01:00:00 13,9 12,2 55 30 76 41 SSW 987,2 6 -
23.11.2017 00:00:00 12,3 12,0 44 24 80 43 SW 988,0 4,5 7,0
22.11.2017 23:00:00 15,1 11,5 55 30 78 42 SSW 988,5 8 0,0
22.11.2017 22:00:00 14,9 11,6 55 30 78 42 S 989,3 9 0,0
22.11.2017 21:00:00 14,2 12,2 52 28 74 40 SSW 990,0 8 0,2
22.11.2017 20:00:00 14,9 11,8 52 28 81 44 SSW 990,7 8 0,0
22.11.2017 19:00:00 15,0 11,3 52 28 70 38 SSW 991,0 9 0,0
22.11.2017 18:00:00 14,8 11,4 46 25 67 36 S 992,0 10 0,0
22.11.2017 17:00:00 14,8 10,8 46 25 72 39 S 992,6 11 0,0
22.11.2017 16:00:00 14,0 11,6 41 22 61 33 S 993,9 10 0,0
22.11.2017 15:00:00 14,1 11,8 39 21 54 29 S 994,8 7 0,0
22.11.2017 14:00:00 14,7 12,0 44 24 65 35 SSW 996,3 10 0,0
22.11.2017 13:00:00 14,4 11,8 41 22 57 31 S 997,1 11 0,0
22.11.2017 12:00:00 14,4 12,1 42 23 59 32 S 998,0 10 0,0
22.11.2017 11:00:00 14,1 12,1 41 22 59 32 SSW 999,7 10 0,0
22.11.2017 10:00:00 14,0 11,9 44 24 61 33 SSW 1000,6 11 0,0
22.11.2017 09:00:00 14,1 11,8 44 24 67 36 SSW 1001,0 11 0,0
22.11.2017 08:00:00 13,7 11,5 42 23 61 33 SSW 1001,4 12 0,0
22.11.2017 07:00:00 13,6 11,7 41 22 57 31 SSW 1001,9 11 0,0
22.11.2017 06:00:00 13,8 11,8 42 23 59 32 SW 1002,5 10 0,0
22.11.2017 05:00:00 13,5 11,9 37 20 55 30 SSW 1003,5 9 0,0
22.11.2017 04:00:00 13,6 11,8 37 20 52 28 SSW 1004,1 12 0,0
22.11.2017 03:00:00 13,6 12,1 39 21 52 28 SW 1004,8 11 0,0
22.11.2017 02:00:00 13,7 11,6 44 24 65 35 SW 1005,5 13 0,0
22.11.2017 01:00:00 13,8 11,9 42 23 61 33 SW 1006,1 10 0,0
22.11.2017 00:00:00 13,8 12,1 46 25 57 31 SW 1006,7 10 0,0
21.11.2017 23:00:00 13,9 11,8 46 25 61 33 SW 1006,9 11 -
21.11.2017 22:00:00 13,8 11,6 42 23 55 30 SW 1007,1 10 0,0
21.11.2017 21:00:00 13,7 11,8 41 22 61 33 SW 1007,7 8 0,0
21.11.2017 20:00:00 13,8 11,6 44 24 57 31 SW 1008,0 10 0,0
21.11.2017 19:00:00 13,7 12,0 35 19 57 31 SW 1008,7 11 0,0
21.11.2017 18:00:00 13,7 11,9 46 25 59 32 SW 1009,0 10 0,0
21.11.2017 17:00:00 13,8 11,8 39 21 52 28 SW 1009,4 11 0,0
21.11.2017 16:00:00 13,7 11,8 24 13 50 27 SW 1009,7 12 0,0
21.11.2017 15:00:00 13,9 12,0 35 19 50 27 SW 1010,3 11 0,0
21.11.2017 14:00:00 13,7 12,1 35 19 - - SW 1010,9 12 0,0
21.11.2017 13:00:00 13,4 11,6 31 17 48 26 SW 1011,9 16 0,0
21.11.2017 12:00:00 13,7 11,1 35 19 46 25 SW 1012,1 19 0,0
21.11.2017 11:00:00 13,1 10,5 31 17 - - WSW 1012,9 18 0,0
21.11.2017 10:00:00 13,0 10,5 34 18 50 27 WSW 1013,2 14 -
21.11.2017 09:00:00 13,1 9,7 34 18 46 25 WSW 1013,3 16 0,0
21.11.2017 08:00:00 13,0 10,4 28 15 - - WSW 1013,1 16 0,0
21.11.2017 07:00:00 13,1 10,5 26 14 - - WSW 1013,2 14 0,0
21.11.2017 06:00:00 13,2 10,6 22 12 - - WSW 1013,5 11 0,0
21.11.2017 05:00:00 12,9 10,0 24 13 - - WSW 1013,8 17 0,0
21.11.2017 04:00:00 12,9 10,6 26 14 - - WSW 1014,1 15 0,0
21.11.2017 03:00:00 12,9 10,9 29 16 - - WSW 1014,3 14 0,0
21.11.2017 02:00:00 12,8 11,0 28 15 - - WSW 1014,7 14 0,0
21.11.2017 01:00:00 13,0 11,3 28 15 48 26 WSW 1015,2 13 0,0
21.11.2017 00:00:00 13,0 10,9 35 19 57 31 WSW 1015,4 16 0,0
20.11.2017 23:00:00 13,0 11,1 35 19 55 30 WSW 1015,3 12 0,0
20.11.2017 22:00:00 13,0 11,2 39 21 61 33 WSW 1015,4 10 0,0
20.11.2017 21:00:00 13,1 11,1 41 22 61 33 WSW 1015,6 10 0,0
20.11.2017 20:00:00 12,9 11,1 41 22 63 34 WSW 1015,6 11 0,0
20.11.2017 19:00:00 13,0 11,2 50 27 65 35 WSW 1015,5 11 0,0
20.11.2017 18:00:00 13,1 11,2 42 23 59 32 WSW 1015,8 11 0,0
20.11.2017 17:00:00 13,1 11,2 42 23 61 33 WSW 1015,7 10 0,0
20.11.2017 16:00:00 13,0 10,9 46 25 61 33 WSW 1015,7 10 -
20.11.2017 15:00:00 13,2 10,9 46 25 61 33 WSW 1016,1 12 0,0
20.11.2017 14:00:00 13,0 11,0 46 25 63 34 WSW 1016,3 15 0,2
20.11.2017 13:00:00 13,1 10,9 46 25 63 34 WSW 1016,9 13 0,0
20.11.2017 12:00:00 13,0 10,7 41 22 59 32 WSW 1017,3 11 0,0
20.11.2017 11:00:00 13,1 10,5 44 24 63 34 WSW 1017,9 14 0,0
20.11.2017 10:00:00 13,0 10,5 42 23 61 33 WSW 1018,3 11 0,0
20.11.2017 09:00:00 12,9 9,7 46 25 61 33 WSW 1018,1 13 0,0
20.11.2017 08:00:00 12,8 9,5 44 24 61 33 WSW 1018,1 12 0,0
20.11.2017 07:00:00 12,5 8,7 44 24 63 34 WSW 1018,4 18 0,0
20.11.2017 06:00:00 12,5 8,9 44 24 63 34 WSW 1018,5 20 -
20.11.2017 05:00:00 12,3 9,2 42 23 55 30 W 1019,2 28 0,0
20.11.2017 04:00:00 12,1 9,1 41 22 54 29 WSW 1019,8 12 0,0
20.11.2017 03:00:00 12,3 9,1 41 22 52 28 WSW 1020,1 30 0,0
20.11.2017 02:00:00 12,3 9,3 34 18 - - WSW 1021,1 35 0,0
20.11.2017 01:00:00 12,5 10,7 29 16 - - WSW 1021,5 29 0,0
20.11.2017 00:00:00 12,0 10,9 24 13 - - SW 1022,2 35 0,0
19.11.2017 23:00:00 11,8 9,7 22 12 - - SSW 1022,9 21 0,0
19.11.2017 22:00:00 11,4 8,5 16 9 - - SSW 1023,7 50 0,0
19.11.2017 21:00:00 10,9 7,9 16 9 - - SW 1023,9 50 0,0
19.11.2017 20:00:00 10,6 7,6 15 8 - - SW 1024,3 40 0,0
19.11.2017 19:00:00 9,9 6,2 8 4 - - S 1024,3 35 0,0
19.11.2017 18:00:00 9,0 4,9 8 4 - - SSW 1024,4 40 0,0
19.11.2017 17:00:00 8,3 4,2 4 2 - - S 1024,7 45 0,0
19.11.2017 16:00:00 9,0 4,6 4 2 - - ESE 1024,7 40 0,0
19.11.2017 15:00:00 9,2 4,3 2 1 - - S 1024,9 35 0,0
19.11.2017 14:00:00 9,2 3,8 4 2 - - SE 1024,9 30 0,0
19.11.2017 13:00:00 9,6 3,6 8 4 - - E 1025,3 30 0,0
19.11.2017 12:00:00 9,1 4,2 8 4 - - E 1025,4 40 0,0
19.11.2017 11:00:00 9,0 4,7 9 5 - - ENE 1025,4 35 0,0
19.11.2017 10:00:00 8,9 4,8 5 3 - - N 1025,1 26 0,0
19.11.2017 09:00:00 9,1 5,1 9 5 - - NNE 1024,9 40 0,0
19.11.2017 08:00:00 7,2 3,8 13 7 - - NNE 1024,7 35 -
19.11.2017 07:00:00 7,1 4,0 13 7 - - NE 1024,2 45 0,0
19.11.2017 06:00:00 6,9 4,5 15 8 - - N 1024,0 45 0,0
19.11.2017 05:00:00 7,1 5,2 13 7 - - N 1023,6 40 0,0
19.11.2017 04:00:00 7,5 4,9 11 6 - - NNE 1023,3 50 0,0
19.11.2017 03:00:00 8,4 6,0 9 5 - - NNE 1023,3 45 0,0
19.11.2017 02:00:00 8,1 5,8 13 7 - - NNE 1022,7 45 0,0
19.11.2017 01:00:00 8,9 8,0 13 7 - - NNE 1022,8 50 0,2

tt = Température de l'air
td = dewpoint
ff = Vitesse du vent
fx = gusts
dd = Direction du vent
ppp = reduced air pressure
vv = visibility
rr = Quantités de précipitations

stations d'obs. à proximité